Location: Artiguedieu
(43.5000°N, 0.5454°E)
Time: 07:44:27
(UTC+00:00)

Explorer 7 - Pass Details

Date: 08 August 2021
Orbit: 484 x 676 km, 50.3° (Epoch: 22 September)

Event Time Altitude Azimuth Distance (km) Brightness Sun altitude
Rises 04:02:50 0° 270° (W) 2,543 - -9.2°
Exits shadow 04:04:26 - 276° (W) 1,921 9.1 -8.9°
Reaches altitude 10° 04:05:07 10° 279° (W) 1,670 8.8 -8.8°
Maximum altitude 04:08:35 35° 347° (NNW) 816 7.9 -8.3°
Drops below altitude 10° 04:12:11 10° 55° (NE) 1,721 11.1 -7.7°
Sets 04:14:33 0° 64° (ENE) 2,635 12.8 -7.4°
